Tiempo cada hora Barnstable

Hoy, 28 Febrero, Domingo

Tiempo Temperatura Precipitaciones Viento Presión Humedad
00:00 +3°C° 0 mm 6 mps 765 mmHg 77%
01:00 +2°C° 0 mm 6 mps 765 mmHg 73%
02:00 +1°C° 0 mm 5 mps 766 mmHg 75%
03:00 +1°C° 0 mm 5 mps 766 mmHg 77%
04:00 0°C° 0 mm 4 mps 767 mmHg 79%
05:00 0°C° 0 mm 4 mps 767 mmHg 80%
06:00 +1°C° 0 mm 3 mps 768 mmHg 81%
07:00 0°C° 0 mm 3 mps 768 mmHg 82%
08:00 +2°C° 0 mm 3 mps 769 mmHg 75%
09:00 +4°C° 0 mm 2 mps 769 mmHg 69%
10:00 +5°C° 0 mm 2 mps 770 mmHg 63%
11:00 +7°C° 0 mm 1 mps 769 mmHg 61%
12:00 +8°C° 0 mm 1 mps 768 mmHg 59%
13:00 +7°C° 0 mm 0 mps 768 mmHg 57%
14:00 +8°C° 0 mm 1 mps 768 mmHg 59%
15:00 +6°C° 0 mm 2 mps 767 mmHg 61%
16:00 +5°C° 0 mm 3 mps 767 mmHg 64%
17:00 +4°C° 0.2 mm 4 mps 767 mmHg 70%
18:00 +3°C° 0.2 mm 4 mps 766 mmHg 76%
19:00 +1°C° 0.2 mm 5 mps 766 mmHg 83%
20:00 +1°C° 0.6 mm 5 mps 765 mmHg 86%
21:00 +1°C° 0.6 mm 6 mps 765 mmHg 89%
22:00 +1°C° 0.6 mm 6 mps 764 mmHg 93%
23:00 +2°C° 0.6 mm 6 mps 763 mmHg 93%

Mañana, 1 Marzo, Lunes

Tiempo Temperatura Precipitaciones Viento Presión Humedad
00:00 +2°C° 0.6 mm 6 mps 762 mmHg 93%
01:00 +2°C° 0.6 mm 6 mps 761 mmHg 94%
02:00 +3°C° 0.4 mm 7 mps 759 mmHg 94%
03:00 +3°C° 0.4 mm 7 mps 758 mmHg 94%
04:00 +2°C° 0.4 mm 8 mps 756 mmHg 95%
05:00 +3°C° 0.5 mm 7 mps 755 mmHg 96%
06:00 +3°C° 0.5 mm 5 mps 754 mmHg 97%
07:00 +5°C° 0.5 mm 4 mps 753 mmHg 98%
08:00 +5°C° 0.9 mm 3 mps 752 mmHg 97%
09:00 +7°C° 0.9 mm 3 mps 751 mmHg 97%
10:00 +7°C° 0.9 mm 2 mps 750 mmHg 96%
11:00 +7°C° 0.1 mm 4 mps 750 mmHg 93%
12:00 +8°C° 0.1 mm 5 mps 749 mmHg 90%
13:00 +9°C° 0.1 mm 7 mps 749 mmHg 87%
14:00 +8°C° 0 mm 7 mps 749 mmHg 79%
15:00 +6°C° 0 mm 7 mps 749 mmHg 70%
16:00 +5°C° 0 mm 7 mps 749 mmHg 62%
17:00 +4°C° 0 mm 8 mps 750 mmHg 61%
18:00 +2°C° 0 mm 9 mps 751 mmHg 60%
19:00 0°C° 0 mm 10 mps 752 mmHg 59%
20:00 -2°C° 0 mm 10 mps 753 mmHg 57%
21:00 -3°C° 0 mm 11 mps 753 mmHg 56%
22:00 -4°C° 0 mm 11 mps 754 mmHg 55%
23:00 -6°C° 0 mm 12 mps 755 mmHg 51%

Pasado mañana, 2 Marzo, Martes

Tiempo Temperatura Precipitaciones Viento Presión Humedad
00:00 -7°C° 0 mm 13 mps 755 mmHg 47%
01:00 -9°C° 0 mm 13 mps 756 mmHg 43%
02:00 -11°C° 0 mm 13 mps 757 mmHg 41%
03:00 -12°C° 0 mm 13 mps 758 mmHg 38%
04:00 -15°C° 0 mm 12 mps 759 mmHg 36%
05:00 -15°C° 0 mm 12 mps 760 mmHg 35%
06:00 -15°C° 0 mm 13 mps 760 mmHg 33%
07:00 -15°C° 0 mm 13 mps 761 mmHg 32%
08:00 -15°C° 0 mm 13 mps 761 mmHg 29%
09:00 -13°C° 0 mm 12 mps 762 mmHg 27%
10:00 -12°C° 0 mm 12 mps 762 mmHg 24%
11:00 -11°C° 0 mm 12 mps 762 mmHg 25%
12:00 -10°C° 0 mm 12 mps 761 mmHg 25%
13:00 -7°C° 0 mm 12 mps 761 mmHg 25%
14:00 -7°C° 0 mm 11 mps 761 mmHg 27%
15:00 -7°C° 0 mm 11 mps 761 mmHg 29%
16:00 -6°C° 0 mm 11 mps 761 mmHg 31%
17:00 -7°C° 0 mm 11 mps 762 mmHg 32%
18:00 -7°C° 0 mm 11 mps 763 mmHg 34%
19:00 -8°C° 0 mm 11 mps 764 mmHg 36%
20:00 -8°C° 0 mm 10 mps 764 mmHg 38%
21:00 -8°C° 0 mm 10 mps 764 mmHg 39%
22:00 -8°C° 0 mm 9 mps 764 mmHg 41%
23:00 -8°C° 0 mm 9 mps 763 mmHg 40%

3 Marzo, Miércoles

Tiempo Temperatura Precipitaciones Viento Presión Humedad
00:00 -7°C° 0 mm 8 mps 763 mmHg 39%
01:00 -7°C° 0 mm 8 mps 763 mmHg 38%
02:00 -7°C° 0 mm 8 mps 763 mmHg 41%
03:00 -6°C° 0 mm 8 mps 762 mmHg 43%
04:00 -6°C° 0 mm 8 mps 762 mmHg 46%
05:00 -5°C° 0 mm 8 mps 762 mmHg 46%
06:00 -5°C° 0 mm 8 mps 762 mmHg 47%
07:00 -4°C° 0 mm 8 mps 761 mmHg 47%
08:00 -2°C° 0 mm 8 mps 761 mmHg 44%
09:00 0°C° 0 mm 8 mps 760 mmHg 41%
10:00 +1°C° 0 mm 8 mps 760 mmHg 39%
11:00 +3°C° 0 mm 7 mps 759 mmHg 40%
12:00 +4°C° 0 mm 7 mps 759 mmHg 41%
13:00 +5°C° 0 mm 7 mps 758 mmHg 42%
14:00 +4°C° 0 mm 7 mps 758 mmHg 46%
15:00 +4°C° 0 mm 7 mps 758 mmHg 50%
16:00 +4°C° 0 mm 7 mps 757 mmHg 53%
17:00 +2°C° 0 mm 6 mps 757 mmHg 57%
18:00 +1°C° 0 mm 6 mps 758 mmHg 61%
19:00 0°C° 0 mm 5 mps 758 mmHg 65%
20:00 -1°C° 0 mm 5 mps 758 mmHg 69%
21:00 -1°C° 0 mm 5 mps 758 mmHg 74%
22:00 -2°C° 0 mm 4 mps 758 mmHg 78%
23:00 -2°C° 0 mm 5 mps 758 mmHg 80%

4 Marzo, Jueves

Tiempo Temperatura Precipitaciones Viento Presión Humedad
00:00 -2°C° 0 mm 5 mps 757 mmHg 82%
01:00 -2°C° 0 mm 5 mps 757 mmHg 84%
02:00 -2°C° 0 mm 5 mps 757 mmHg 84%
03:00 -4°C° 0 mm 5 mps 757 mmHg 85%
04:00 -4°C° 0 mm 5 mps 756 mmHg 85%
05:00 -4°C° 0 mm 5 mps 756 mmHg 83%
06:00 -2°C° 0 mm 5 mps 757 mmHg 80%
07:00 -3°C° 0 mm 6 mps 757 mmHg 77%
08:00 -2°C° 0 mm 6 mps 757 mmHg 69%
09:00 +1°C° 0 mm 6 mps 757 mmHg 61%
10:00 +2°C° 0 mm 6 mps 757 mmHg 53%
11:00 +3°C° 0 mm 6 mps 756 mmHg 51%
12:00 +5°C° 0 mm 5 mps 756 mmHg 50%
13:00 +6°C° 0 mm 5 mps 756 mmHg 48%
14:00 +6°C° 0 mm 4 mps 756 mmHg 48%
15:00 +6°C° 0 mm 4 mps 755 mmHg 48%
16:00 +6°C° 0 mm 4 mps 755 mmHg 49%
17:00 +5°C° 0 mm 5 mps 755 mmHg 51%
18:00 +2°C° 0 mm 5 mps 756 mmHg 53%
19:00 +1°C° 0 mm 6 mps 756 mmHg 55%
20:00 -1°C° 0 mm 7 mps 757 mmHg 58%
21:00 -2°C° 0 mm 8 mps 757 mmHg 60%
22:00 -4°C° 0 mm 9 mps 757 mmHg 63%
23:00 -5°C° 0 mm 9 mps 757 mmHg 58%

5 Marzo, Viernes

Tiempo Temperatura Precipitaciones Viento Presión Humedad
00:00 -6°C° 0 mm 9 mps 757 mmHg 53%
01:00 -8°C° 0 mm 9 mps 757 mmHg 48%
02:00 -9°C° 0 mm 9 mps 757 mmHg 46%
03:00 -9°C° 0 mm 9 mps 758 mmHg 44%
04:00 -10°C° 0 mm 9 mps 758 mmHg 42%
05:00 -10°C° 0 mm 9 mps 758 mmHg 44%
06:00 -10°C° 0 mm 9 mps 758 mmHg 46%
07:00 -10°C° 0 mm 8 mps 758 mmHg 48%
08:00 -9°C° 0 mm 9 mps 758 mmHg 41%
09:00 -9°C° 0 mm 9 mps 758 mmHg 34%
10:00 -9°C° 0 mm 9 mps 758 mmHg 27%
11:00 -8°C° 0 mm 9 mps 758 mmHg 26%
12:00 -6°C° 0 mm 9 mps 757 mmHg 25%
13:00 -5°C° 0 mm 9 mps 757 mmHg 23%
14:00 -5°C° 0 mm 9 mps 757 mmHg 25%
15:00 -5°C° 0 mm 9 mps 757 mmHg 26%
16:00 -5°C° 0 mm 9 mps 757 mmHg 27%
17:00 -5°C° 0 mm 9 mps 757 mmHg 30%
18:00 -6°C° 0 mm 9 mps 757 mmHg 33%
19:00 -8°C° 0 mm 9 mps 758 mmHg 36%
20:00 -8°C° 0 mm 9 mps 758 mmHg 38%
21:00 -9°C° 0 mm 9 mps 758 mmHg 40%
22:00 -9°C° 0 mm 9 mps 759 mmHg 42%
23:00 -9°C° 0 mm 9 mps 759 mmHg 42%
Mostrar más

Necesitamos Su Consentimiento

Meteoprog y nuestros Proveedores de Servicios pueden almacenar y acceder a sus datos personales como cookies, identificadores de dispositivo u otras tecnologías similares de su dispositivo y procesar dichos datos para personalizar contenido y anuncios, además de ofrecer funciones de redes sociales y analizar el tráfico.

  • Almacenar y/o acceder a información en su dispositivo

    Se puede almacenar o acceder a cookies, identificadores de dispositivo u otra información de su dispositivo para los fines anteriormente indicados.

  • Anuncios y contenido personalizados, medición de anuncios y contenido, percepciones del público, y desarrollo de productos

    Los anuncios y el contenido pueden personalizarse en base a su perfil. Se pueden añadir más datos para personalizar mejor los anuncios y contenidos. Se puede medir el rendimiento de los anuncios y contenidos. Se puede obtener la percepción sobre el público que ha visto los anuncios y contenidos. Dichos datos pueden usarse para desarrollar o mejorar la experiencia del usuario, sistemas y software.

Al hacer clic en ‘Estoy De Acuerdo’ usted permitirá el uso de las cookies, identificadores de dispositivo, balizas web u otras tecnologías similares indicadas. Su configuración puede cambiarse desde el navegador de su dispositivo.

Para ciertos fines, los intereses legítimos pueden ser considerados por encima del consentimiento. Puede leer más sobre ello en nuestra Política de Privacidad y Cookies.